TimeMST,TemperatureF,Dew PointF,Humidity,Sea Level PressureIn,VisibilityMPH,Wind Direction,Wind SpeedMPH,Gust SpeedMPH,PrecipitationIn,Events,Conditions,WindDirDegrees,DateUTC
12:53 AM,21.9,8.1,55,29.96,10.0,WSW,8.1,-,N/A,,Clear,240,2013-01-07 07:53:00
1:53 AM,17.1,6.1,62,30.00,10.0,NNW,8.1,-,N/A,,Clear,340,2013-01-07 08:53:00
2:53 AM,19.9,6.1,55,29.99,10.0,North,5.8,-,N/A,,Clear,360,2013-01-07 09:53:00
3:53 AM,19.9,5.0,52,29.98,10.0,NW,5.8,-,N/A,,Clear,320,2013-01-07 10:53:00
4:53 AM,12.9,3.0,65,30.02,10.0,Calm,Calm,-,N/A,,Clear,0,2013-01-07 11:53:00
5:53 AM,14.0,3.9,64,30.03,10.0,Calm,Calm,-,N/A,,Clear,0,2013-01-07 12:53:00
6:53 AM,14.0,3.0,62,30.04,10.0,Calm,Calm,-,N/A,,Clear,0,2013-01-07 13:53:00
7:53 AM,12.9,1.9,62,30.10,10.0,Calm,Calm,-,N/A,,Clear,0,2013-01-07 14:53:00
8:53 AM,18.0,6.1,60,30.12,10.0,South,3.5,-,N/A,,Clear,170,2013-01-07 15:53:00
9:53 AM,26.1,9.0,49,30.09,10.0,South,4.6,-,N/A,,Clear,190,2013-01-07 16:53:00
10:53 AM,30.9,10.0,42,30.06,10.0,Variable,3.5,-,N/A,,Clear,0,2013-01-07 17:53:00
11:53 AM,35.1,12.9,40,29.99,10.0,SE,5.8,-,N/A,,Clear,130,2013-01-07 18:53:00
12:53 PM,44.1,14.0,30,29.91,10.0,West,9.2,-,N/A,,Clear,270,2013-01-07 19:53:00
1:53 PM,46.0,14.0,28,29.90,10.0,West,17.3,24.2,N/A,,Clear,280,2013-01-07 20:53:00
2:53 PM,46.0,12.9,26,29.89,10.0,West,13.8,-,N/A,,Clear,270,2013-01-07 21:53:00
4:53 PM,36.0,12.9,39,29.94,10.0,Variable,3.5,-,N/A,,Clear,0,2013-01-07 23:53:00
5:53 PM,28.9,12.0,49,29.93,10.0,WNW,10.4,-,N/A,,Clear,300,2013-01-08 00:53:00
6:53 PM,32.0,10.0,40,29.90,10.0,Calm,Calm,-,N/A,,Clear,0,2013-01-08 01:53:00
7:53 PM,30.9,10.9,43,29.88,10.0,WSW,6.9,-,N/A,,Clear,250,2013-01-08 02:53:00
8:53 PM,37.0,12.9,37,29.81,10.0,West,16.1,25.3,N/A,,Clear,270,2013-01-08 03:53:00
9:53 PM,37.0,15.1,41,29.78,10.0,West,15.0,20.7,N/A,,Clear,260,2013-01-08 04:53:00
10:53 PM,37.9,16.0,41,29.77,10.0,WSW,11.5,-,N/A,,Overcast,250,2013-01-08 05:53:00
11:53 PM,36.0,17.1,46,29.74,10.0,West,11.5,-,N/A,,Clear,280,2013-01-08 06:53:00